Agadir Al Massira, Morocco

3:05 PM WEST on September 20, 2017 (GMT +0100)
Agadir Al Massira

Weather History for GMAD - March, 2013

Change the Weather History Date:

Thursday, March 28, 2013

  Actual Average Record
Temperature  
Mean Temperature 65 °F -  
Max Temperature 73 °F - - ()
Min Temperature 57 °F - - ()
Growing Degree Days 15 (Base 50)    
Moisture  
Dew Point 55 °F    
Average Humidity 74    
Maximum Humidity 94    
Minimum Humidity 43    
Precipitation  
Precipitation 0.00 in - - ()
Sea Level Pressure  
Sea Level Pressure 29.99 in    
Wind  
Wind Speed 6 mph ()    
Max Wind Speed 10 mph    
Max Gust Speed -    
Visibility 6.2 miles    
Events      
T = Trace of Precipitation, MM = Missing Value Source: Averaged Metar Reports

Daily Weather History Graph

Daily Weather History Graph

Search for Another Location

Airport or City:

Trip Planner

Search our weather history database for the weather conditions in past years. The results will help you decide how hot, cold, wet, or windy it might be!

Date:

Astronomy

Mar. 28, 2013 Rise Set
Actual Time 6:31 AM WET 6:54 PM WET
Civil Twilight 6:07 AM WET 7:18 PM WET
Nautical Twilight 5:39 AM WET 7:46 PM WET
Astronomical Twilight 5:11 AM WET 8:14 PM WET
Moon 8:20 PM WET (3/28) 6:58 AM WET (3/28)
Length of Visible Light 13h 10m
Length of Day
12h 22m
Full, 98% of the Moon is Illuminated
Mar 28
Full
Apr 3
Last Quarter
Apr 10
New
Apr 18
First Quarter
Apr 25
Full

Hourly Weather History & Observations

Time (WET) Temp. Dew Point Humidity Pressure Visibility Wind Dir Wind Speed Gust Speed Precip Events Conditions
12:00 AM 62 °F 59 °F 86% 29.98 in 6 mi South 4.6 mph - -   Mostly Cloudy
12:00 AM 60.8 °F 59.0 °F 94% 29.98 in 6.2 mi South 4.6 mph - N/A   Mostly Cloudy
2:00 AM 60.8 °F 59.0 °F 94% 29.95 in 6.2 mi South 4.6 mph - N/A   Mostly Cloudy
3:00 AM 61 °F 59 °F 89% 29.94 in 6 mi SSW 6.9 mph - -   Mostly Cloudy
3:00 AM 60.8 °F 59.0 °F 94% 29.92 in 6.2 mi SSW 6.9 mph - N/A   Mostly Cloudy
4:00 AM 60.8 °F 59.0 °F 94% 29.92 in 6.2 mi SSW 4.6 mph - N/A   Scattered Clouds
5:00 AM 59.0 °F 57.2 °F 94% 29.92 in 6.2 mi SW 6.9 mph - N/A   Scattered Clouds
6:00 AM 58 °F 55 °F 88% 29.93 in 6 mi SW 6.9 mph - -   Scattered Clouds
6:00 AM 57.2 °F 55.4 °F 94% 29.92 in 6.2 mi SW 6.9 mph - N/A   Partly Cloudy
7:00 AM 59.0 °F 55.4 °F 88% 29.92 in 6.2 mi SSW 8.1 mph - N/A   Partly Cloudy
8:00 AM 62.6 °F 55.4 °F 77% 29.95 in - SW 9.2 mph - N/A   Unknown
9:00 AM 65 °F 54 °F 60% 29.99 in 6 mi WNW 8.1 mph - -  
9:00 AM 64.4 °F 55.4 °F 73% 29.98 in 6.2 mi WNW 8.1 mph - N/A   Unknown
10:00 AM 64.4 °F 55.4 °F 73% 29.98 in 6.2 mi WNW 8.1 mph - N/A   Scattered Clouds
11:00 AM 68.0 °F 53.6 °F 60% 30.01 in 6.2 mi West 3.5 mph - N/A   Scattered Clouds
12:00 PM 71 °F 53 °F 43% 30.02 in 6 mi SSW 6.9 mph - -   Partly Cloudy
12:00 PM 71.6 °F 53.6 °F 53% 30.01 in 6.2 mi SSW 6.9 mph - N/A   Scattered Clouds
1:00 PM 73.4 °F 51.8 °F 47% 30.01 in 6.2 mi SSW 9.2 mph - N/A   Scattered Clouds
3:00 PM 71.6 °F 53.6 °F 53% 30.01 in 6.2 mi SW 10.4 mph - N/A   Scattered Clouds
5:00 PM 69.8 °F 53.6 °F 56% 30.01 in 6.2 mi SSW 9.2 mph - N/A   Scattered Clouds
6:00 PM 69 °F 53 °F 47% 30.03 in 6 mi SSW 6.9 mph - -   Scattered Clouds
6:00 PM 69.8 °F 53.6 °F 56% 30.04 in 6.2 mi SSW 6.9 mph - N/A   Scattered Clouds
7:00 PM 64.4 °F 55.4 °F 73% 30.04 in 6.2 mi South 4.6 mph - N/A   Unknown
8:00 PM 62.6 °F 55.4 °F 77% 30.06 in 6.2 mi SSE 8.1 mph - N/A   Unknown
9:00 PM 60.8 °F 55.4 °F 82% 30.06 in 6.2 mi South 8.1 mph - N/A   Partly Cloudy
10:00 PM 60.8 °F 55.4 °F 82% 30.09 in 6.2 mi South 8.1 mph - N/A   Scattered Clouds
11:00 PM 59.0 °F 53.6 °F 82% 30.12 in 6.2 mi Calm Calm - N/A   Unknown